Zurück zum Katalog

STARLINK-4659

AktivKommunikationVLEO
NORAD 54841·PAYLOAD·🇺🇸 United States

Gestartet Dec 28, 2022 von Cape Canaveral Space Force Station

Loading…

Nächste Überflüge (nächste 24 Stunden)

TLE

AktuellSource: CelesTrak SupGP

Epoche: Sep 14, 2026, 20:38 UTC

1 54841C 22177X   26257.86020833 -.00023342  00000+0 -84550-3 0  2570
2 54841  43.0024 144.5810 0001403 262.1531  21.6350 15.27588256    15

Verfolge STARLINK-4659 in Echtzeit mit AllMySat

Download on the App Store